Location: De Lemmer
(52.8462°N, 5.7091°E)
Time: 10:52:55
(UTC+00:00)

Cosmos 2082 Rocket - Pass Details

Date: 18 September 2020
Orbit: 834 x 853 km, 71.0° (Epoch: 30 October)

Event Time Altitude Azimuth Distance (km) Brightness Sun altitude
Rises 20:38:14 0° 329° (NNW) 3,394 6.5 -24.8°
Reaches altitude 10° 20:40:45 10° 334° (NNW) 2,457 5.5 -25.1°
Maximum altitude 20:46:16 54° 51° (NE) 1,013 2.5 -25.8°
Enters shadow 20:46:38 53° 66° (ENE) 1,023 2.4 -25.8°
